Regional Weather Roundup
Issued by NWS Albany, NY

Home | Current Version | Previous Version | Text Only | Print | Product List | Glossary On
Versions: 1 2 3 4 5 6 7 8 9 10 11 12 13 14 15 16 17 18 19 20 21 22 23 24 25 26 27 28 29 30 31 32 33 34 35 36 37 38 39 40 41 42 43 44 45 46 47 48 49 50
230
ASUS41 KALY 270610
RWRALY

NEW YORK STATE HOURLY WEATHER ROUNDUP
NATIONAL WEATHER SERVICE ALBANY NY
100 AM EST MON FEB 27 2017

NOTE: "FAIR" INDICATES FEW OR NO CLOUDS BELOW 12,000 FEET WITH NO
SIGNIFICANT WEATHER AND/OR NO OBSTRUCTIONS TO VISIBILITY.

NYZ032-033-038>043-046>054-057>066-NYZ062>081-082-084-270700-
EAST


CITY           SKY/WX    TMP DP  RH WIND       PRES   REMARKS
ALBANY         MOCLDY    29  20  69 S8        30.21R WCI  21
GLENS FALLS    MOCLDY    29  19  66 SW10      30.17R WCI  20
POUGHKEEPSIE   CLEAR     24  18  77 CALM      30.25R
NEWBURGH       CLEAR     28  19  69 W5        30.25R WCI  23
MONTGOMERY     CLEAR     26  19  74 CALM      30.24R
WHITE PLAINS   CLEAR     32  15  49 W5        30.25R WCI  27
ISLIP          CLEAR     28  19  69 W5        30.28R WCI  23
NEW YORK CITY  CLEAR     39  15  37 W8        30.29R WCI  33
CENTRAL PARK   CLEAR     35  16  45 VRB3      30.31R
$$

NYZ005>009-017-018-044>046-055-056-270700-
CENTRAL


CITY           SKY/WX    TMP DP  RH WIND       PRES   REMARKS
FULTON         CLEAR     33  18  53 S12       30.09S WCI  24
SYRACUSE       PTCLDY    33  17  51 SW14      30.11S WCI  23
ROME           PTCLDY    27  20  75 E8        30.15S WCI  19
ELMIRA         CLEAR     24  14  65 E3        30.17R
BINGHAMTON     CLEAR     26  14  60 SW10      30.13R WCI  16
MONTICELLO     CLEAR    N/A N/A N/A CALM      30.20R
$$

NYZ026>034-041>043-087-270700-
NORTH


CITY           SKY/WX    TMP DP  RH WIND       PRES   REMARKS
WATERTOWN      CLOUDY    34  20  56 S15G24    30.05S WCI  24
FORT DRUM      NOT AVBL
OGDENSBURG     FAIR      33  23  68 SW14G22   30.01S WCI  23
MASSENA        CLOUDY    32  21  64 S14G24    30.01F WCI  22
SARANAC LAKE   MOCLDY    21  18  88 SW8       29.99F WCI  11
PLATTSBURGH    PTCLDY    31  16  54 VRB3      30.07R
$$

NYZ001>004-010>016-019>021-085-270700-
WEST


CITY           SKY/WX    TMP DP  RH WIND       PRES   REMARKS
NIAGARA FALLS  CLOUDY    39  21  48 SW20G33   30.07S WCI  29
BUFFALO        PTCLDY    36  18  48 SW15      30.08S WCI  27
DUNKIRK        CLEAR     37  18  46 SW17G25   30.11S WCI  27
JAMESTOWN      CLEAR     30  16  55 SW10G17   30.11R WCI  21
WELLSVILLE     CLEAR     30  14  51 SW12G18   30.11R WCI  20
ROCHESTER      CLEAR     34  18  52 SW14      30.08S WCI  25
PENN YAN       CLEAR     33  15  47 S14       30.12S WCI  23
$$

             KEY
       WCI = WIND CHILL INDEX
       VSB = VISIBILITY
       HX  = HEAT INDEX
$$




USA.gov is the U.S. government's official web portal to all federal, state and local government web resources and services.